Tracking 26321 objects as of 28-Nov-2022
HD Live streaming from Space Station
objects crossing your sky now

NOAA 16 DEB

Track NOAA 16 DEB now!
10-day predictions


NORAD ID: 41262
Int'l Code: 2000-055FN
Perigee: 845.6 km
Apogee: 931.4 km
Inclination: 98.9 °
Period: 102.6 minutes
Semi major axis: 7259 km
RCS: Unknown
Launch date: September 21, 2000
Source: United States (US)
Launch site: AIR FORCE WESTERN TEST RANGE (AFWTR)

Note: This is SATELLITE DEBRIS
aabbcc
Your satellite tracking list
Your tracking list is empty




NASA's NSSDC Master Catalog

Two Line Element Set (TLE):
1 41262U 00055FN  22329.86594828  .00003695  00000-0  23444-2 0  9995
2 41262  98.8693 356.3264 0059081  44.7357 315.8553 14.03600541356022
Source of the keplerian elements: AFSPC